Weather History for KSSI - March, 2013

Change the Weather History Date:

Tuesday, March 5, 2013

  Actual Average Record
Temperature  
Mean Temperature 59 °F 58 °F  
Max Temperature 74 °F 67 °F 83 °F (1985)
Min Temperature 43 °F 49 °F 28 °F (1960)
Degree Days  
Heating Degree Days 6 8  
Month to date heating degree days 85 40  
Since 1 July heating degree days 1000 1291  
Cooling Degree Days 0 1  
Month to date cooling degree days 0 4  
Year to date cooling degree days 28 13  
Growing Degree Days 8 (Base 50)    
Moisture  
Dew Point 46 °F    
Average Humidity 65    
Maximum Humidity 83    
Minimum Humidity 46    
Precipitation  
Precipitation 0.03 in 0.13 in 1.74 in (1959)
Month to date precipitation 0.03 0.69  
Year to date precipitation 4.14 7.38  
Snow  
Snow 0.00 in - 0.00 in ()
Month to date snowfall 0.0  
Since 1 July snowfall 0.0  
Snow Depth 0.00 in    
Sea Level Pressure  
Sea Level Pressure 30.02 in    
Wind  
Wind Speed 11 mph (SSW)    
Max Wind Speed 22 mph    
Max Gust Speed 30 mph    
Visibility 10 miles    
Events Rain    
T = Trace of Precipitation, MM = Missing Value Source: NWS Daily Summary

Daily Weather History Graph

Daily Weather History Graph

Search for Another Location

Airport or City:

Trip Planner

Search our weather history database for the weather conditions in past years. The results will help you decide how hot, cold, wet, or windy it might be!

Date:

Astronomy

Mar. 05, 2013 Rise Set
Actual Time 6:47 AM EST 6:26 PM EST
Civil Twilight 6:23 AM EST 6:51 PM EST
Nautical Twilight 5:55 AM EST 7:19 PM EST
Astronomical Twilight 5:27 AM EST 7:47 PM EST
Moon 1:41 AM EST (3/5) 12:21 PM EST (3/5)
Length of Visible Light 12h 28m
Length of Day
11h 39m
Last Quarter, 41% of the Moon is Illuminated
Mar 5
Last Quarter
Mar 11
New
Mar 19
First Quarter
Mar 27
Full
Apr 3
Last Quarter

Hourly Weather History & Observations

Time (EST) Temp. Windchill Dew Point Humidity Pressure Visibility Wind Dir Wind Speed Gust Speed Precip Events Conditions
12:53 AM 54.0 °F - 36.0 °F 51% 30.12 in 10.0 mi South 6.9 mph - N/A   Clear
2:53 AM 52.0 °F - 39.0 °F 61% 30.12 in 10.0 mi WSW 6.9 mph - N/A   Clear
3:53 AM 50.0 °F - 37.0 °F 61% 30.11 in 10.0 mi SSW 6.9 mph - N/A   Clear
4:53 AM 48.0 °F - 37.9 °F 68% 30.15 in 10.0 mi West 3.5 mph - N/A   Clear
5:53 AM 45.0 °F 43.5 °F 39.0 °F 80% 30.17 in 10.0 mi WSW 3.5 mph - N/A   Clear
6:53 AM 42.8 °F 41.1 °F 37.4 °F 81% 30.17 in 10.0 mi SW 3.5 mph - N/A   Clear
7:53 AM 50.0 °F - 39.2 °F 66% 30.16 in 10.0 mi South 3.5 mph - N/A   Clear
8:53 AM 53.1 °F - 39.9 °F 61% 30.15 in 10.0 mi South 8.1 mph - N/A   Clear
9:53 AM 55.9 °F - 43.0 °F 62% 30.14 in 10.0 mi South 9.2 mph - N/A   Clear
10:53 AM 60.1 °F - 43.0 °F 53% 30.13 in 10.0 mi SSE 11.5 mph - N/A   Clear
11:53 AM 63.0 °F - 43.0 °F 48% 30.10 in 10.0 mi South 9.2 mph - N/A   Clear
12:53 PM 64.0 °F - 46.0 °F 52% 30.04 in 10.0 mi SSE 13.8 mph 20.7 mph N/A   Clear
1:53 PM 64.0 °F - 46.0 °F 52% 30.01 in 10.0 mi South 10.4 mph 21.9 mph N/A   Clear
2:53 PM 63.0 °F - 48.0 °F 58% 29.98 in 10.0 mi South 12.7 mph 20.7 mph N/A   Partly Cloudy
3:53 PM 66.9 °F - 51.1 °F 57% 29.96 in 10.0 mi SSW 11.5 mph 17.3 mph N/A   Mostly Cloudy
4:13 PM 73.4 °F - 50.0 °F 44% 29.94 in 10.0 mi SW 13.8 mph 23.0 mph N/A   Partly Cloudy
4:53 PM 73.0 °F - 51.1 °F 46% 29.93 in 10.0 mi SW 15.0 mph - N/A   Mostly Cloudy
5:53 PM 70.0 °F - 52.0 °F 53% 29.90 in 10.0 mi SW 16.1 mph 24.2 mph N/A   Mostly Cloudy
6:53 PM 69.1 °F - 52.0 °F 54% 29.91 in 10.0 mi SW 13.8 mph 21.9 mph N/A   Scattered Clouds
7:53 PM 66.9 °F - 53.1 °F 61% 29.88 in 10.0 mi SW 13.8 mph - N/A   Clear
8:53 PM 66.0 °F - 54.0 °F 65% 29.87 in 10.0 mi SW 17.3 mph 26.5 mph N/A   Clear
9:53 PM 64.0 °F - 54.0 °F 70% 29.87 in 10.0 mi SW 17.3 mph - N/A   Mostly Cloudy
10:53 PM 64.0 °F - 55.0 °F 73% 29.86 in 10.0 mi SW 17.3 mph - N/A   Mostly Cloudy
11:53 PM 64.9 °F - 57.9 °F 78% 29.83 in 8.0 mi WSW 17.3 mph 27.6 mph 0.00 in Rain Light Rain